[[{"header":{"parameterUnit":"m.s-1","parameterCategory":1,"la1":30.2991,"la2":30.254,"lo1":-89.0895,"lo2":-89.0444,"dy":0.0017,"dx":0.0017,"nx":28,"ny":28,"refTime":"2025-05-28T09:00:00:Z","depth":0,"parameterNumber":2,"parameterNumberName":"U-component_of_WINDS"},"data":[0,0,0,0,0,0,0,0,0,0,0,0,0,0,0,0,0,0,0,0,0,0,0,0,0,0,0,0,0,0,0,0,0,0,0,0,0,0,0,0,0,0,0,0,0,0,0,0,0,0,0,0,0,0,0,0,0,0,-1.6431,-1.6432,0,-1.649,-1.6491,-1.6492,-1.6487,-1.6486,-1.6486,-1.6485,-1.6544,-1.6546,-1.6549,0,0,0,0,0,0,0,0,0,0,0,0,0,-1.6313,-1.6315,-1.6431,-1.6432,-1.6433,-1.649,-1.6491,-1.6492,-1.6488,-1.6486,-1.6485,-1.6484,-1.6543,-1.6546,-1.6549,0,0,0,0,0,0,0,0,0,0,0,0,0,-1.6368,-1.6316,-1.6431,-1.6437,-1.6439,-1.649,-1.6491,-1.6492,-1.6488,-1.6486,-1.6485,-1.6484,-1.6542,-1.6546,-1.6549,-1.6598,0,0,-1.656,-1.6562,0,0,0,0,0,0,0,0,-1.6365,-1.6372,-1.6436,-1.6437,-1.6438,-1.648,-1.6471,-1.6527,-1.6488,-1.6469,-1.6485,-1.6483,-1.6524,-1.6529,-1.6543,-1.66,-1.6603,-1.656,-1.6563,-1.6564,-1.6565,0,0,0,0,0,0,0,-1.6361,-1.6369,-1.6454,-1.6437,-1.6438,-1.6437,-1.6443,-1.6482,-1.6503,-1.6471,-1.647,-1.6478,-1.6524,-1.6539,-1.6544,-1.6604,-1.656,-1.6564,-1.6566,-1.6567,-1.6705,-1.6706,0,0,0,0,0,0,-1.6356,-1.6366,-1.6453,-1.6456,-1.6398,-1.644,-1.6447,-1.6468,-1.6503,-1.6507,-1.6479,-1.6477,-1.6534,-1.654,-1.6546,-1.6605,-1.6564,-1.6567,-1.657,-1.6703,-1.6705,-1.6707,0,0,0,0,0,0,-1.6353,-1.6363,-1.645,-1.6411,-1.6422,-1.6444,-1.6467,-1.647,-1.6485,-1.6509,-1.6512,-1.649,-1.6533,-1.6541,-1.6585,-1.6607,-1.6569,-1.6572,-1.6702,-1.6704,-1.6706,-1.6723,0,0,0,0,0,0,-1.635,-1.6363,-1.6381,-1.6412,-1.6424,-1.6488,-1.6468,-1.6472,-1.6491,-1.649,-1.652,-1.6524,-1.6532,-1.658,-1.6589,-1.6611,-1.6575,-1.67,-1.6703,-1.6705,-1.6721,-1.6726,-1.673,0,0,0,0,0,-1.6346,-1.6383,-1.6382,-1.6393,-1.6448,-1.649,-1.6497,-1.6506,-1.6493,-1.6512,-1.6527,-1.6523,-1.6604,-1.6584,-1.6594,-1.6618,-1.6698,-1.6702,-1.6705,-1.6719,-1.6725,-1.673,0,0,0,0,0,0,-1.6354,-1.6387,-1.6386,-1.6435,-1.646,-1.6489,-1.6513,-1.6512,-1.654,-1.6538,-1.6548,-1.6555,-1.6599,-1.6613,-1.6591,-1.6667,-1.6649,-1.6655,-1.6656,-1.6662,-1.6667,-1.6661,-1.6578,0,0,0,0,0,-1.6362,-1.6393,-1.642,-1.6461,-1.6473,-1.6491,-1.6509,-1.6515,-1.654,-1.655,-1.6569,-1.6593,-1.6624,-1.6644,-1.6674,-1.6724,-1.673,-1.6745,-1.675,-1.6753,-1.6757,-1.6785,-1.6792,-1.6718,-1.6718,-1.6718,0,0,-1.6377,-1.6399,-1.6418,-1.6463,-1.6482,-1.6514,-1.65,-1.6534,-1.6557,-1.6555,-1.6598,-1.6613,-1.6641,-1.6688,-1.671,-1.6701,-1.678,-1.6758,-1.676,-1.6763,-1.6789,-1.6796,-1.6802,-1.672,-1.672,-1.672,0,0,-1.6422,-1.6442,-1.6478,-1.6498,-1.6529,-1.6541,-1.6549,-1.6579,-1.6589,-1.6632,-1.6631,-1.666,-1.6713,-1.6733,-1.675,-1.6804,-1.6801,-1.6814,-1.6837,-1.6864,-1.6869,-1.6875,-1.6893,-1.69,-1.6818,-1.6818,-1.6818,0,-1.6437,-1.6485,-1.6496,-1.6531,-1.655,-1.6551,-1.6588,-1.6607,-1.6645,-1.6658,-1.6649,-1.6716,-1.6735,-1.6786,-1.68,-1.6814,-1.6824,-1.6809,-1.6868,-1.6873,-1.6878,-1.6896,-1.6903,-1.6819,-1.6819,-1.6819,-1.6819,0,-1.6502,-1.6536,-1.6561,-1.6599,-1.6622,-1.6657,-1.6673,-1.6695,-1.6699,-1.6712,-1.6756,-1.6779,-1.6814,-1.6827,-1.683,-1.6879,-1.6873,-1.6866,-1.6847,-1.6886,-1.6903,-1.691,-1.6821,-1.6821,-1.682,-1.682,0,0,-1.6552,-1.6596,-1.6605,-1.6622,-1.6657,-1.6683,-1.6719,-1.6753,-1.6771,-1.6798,-1.6828,-1.6874,-1.6867,-1.6887,-1.6893,-1.6917,-1.6957,-1.6906,-1.6907,-1.6914,-1.7012,-1.7016,-1.7024,-1.6957,-1.6958,-1.6959,-1.7009,0,-1.6599,-1.6662,-1.6674,-1.6729,-1.676,-1.6762,-1.6793,-1.6818,-1.6831,-1.686,-1.6875,-1.6906,-1.6896,-1.6908,-1.6931,-1.6947,-1.6977,-1.6944,-1.6983,-1.6985,-1.6975,-1.7033,-1.7037,-1.7084,-1.7016,-1.7017,-1.7018,0,-1.6662,-1.6691,-1.6749,-1.678,-1.6794,-1.6821,-1.6854,-1.6882,-1.691,-1.6918,-1.6941,-1.6945,-1.6982,-1.6963,-1.7014,-1.6992,-1.7009,-1.7019,-1.7021,-1.7024,-1.7002,-1.7036,-1.7099,-1.7105,-1.7029,-1.7028,-1.7027,0,-1.6691,-1.6745,-1.6787,-1.6802,-1.6839,-1.6858,-1.6875,-1.6902,-1.6922,-1.6951,-1.6964,-1.6997,-1.7014,-1.704,-1.7052,-1.7038,-1.7102,-1.7085,-1.7109,-1.7109,-1.7121,-1.712,-1.7186,-1.7135,-1.7134,-1.7134,-1.7134,0,-1.6741,-1.6776,-1.68,-1.6826,-1.6866,-1.6879,-1.6918,-1.6934,-1.6958,-1.6987,-1.6992,-1.7018,-1.7034,-1.7063,-1.7074,-1.7114,-1.7122,-1.7129,-1.7131,-1.7128,-1.7127,-1.7138,-1.7134,-1.7136,-1.7136,-1.7135,-1.7135,0,-1.6779,-1.6797,-1.6842,-1.6875,-1.6884,-1.6911,-1.6939,-1.6964,-1.6978,-1.7015,-1.7024,-1.7046,-1.7081,-1.7097,-1.7139,-1.7146,-1.7192,-1.7192,-1.7182,-1.7182,-1.7206,-1.7203,-1.728,-1.729,-1.7233,-1.7234,-1.7234,0,-1.6809,-1.6837,-1.6872,-1.6892,-1.6909,-1.6941,-1.6962,-1.6977,-1.6999,-1.7034,-1.7054,-1.7089,-1.7118,-1.7173,-1.7192,-1.7225,-1.7226,-1.7251,-1.723,-1.7226,-1.7225,-1.7222,-1.7225,-1.7254,-1.7254,-1.7255,-1.7255,0,-1.6861,-1.6868,-1.6899,-1.6933,-1.6958,-1.6985,-1.7012,-1.7028,-1.7047,-1.7071,-1.7107,-1.7129,-1.7173,-1.7208,-1.7242,-1.7259,-1.726,-1.7262,-1.7269,-1.7265,-1.7257,-1.7261,-1.719,-1.7259,-1.7259,-1.7258,-1.7258,-1.7258,-1.6895,-1.6919,-1.6949,-1.6982,-1.7005,-1.703,-1.7055,-1.7073,-1.7103,-1.7141,-1.7148,-1.7186,-1.7214,-1.726,-1.7278,-1.7308,-1.7302,-1.7312,-1.7315,-1.7317,-1.7318,-1.7254,-1.7314,-1.7314,-1.7314,-1.7314,-1.7314,0,-1.6946,-1.6965,-1.6996,-1.7034,-1.7061,-1.7061,-1.7091,-1.7113,-1.7147,-1.7173,-1.7202,-1.7243,-1.7277,-1.73,-1.7334,-1.7354,-1.7355,-1.7362,-1.736,-1.7364,-1.7322,-1.7311,-1.736,-1.736,-1.736,-1.736,-1.736,-1.736,-1.6975,-1.7016,-1.7028,-1.708,-1.71,-1.7137,-1.7154,-1.7177,-1.7199,-1.7245,-1.7273,-1.7289,-1.7314,-1.735,-1.7381,-1.7387,-1.7399,-1.7406,-1.7412,-1.7371,-1.7366,-1.7362,-1.7352,-1.7409,-1.7409,-1.7451,-1.7451,-1.7452]},{"header":{"parameterUnit":"m.s-1","parameterCategory":1,"la1":30.2991,"la2":30.254,"lo1":-89.0895,"lo2":-89.0444,"dy":0.0017,"dx":0.0017,"nx":28,"ny":28,"refTime":"2025-05-28T09:00:00:Z","depth":0,"parameterNumber":3,"parameterNumberName":"V-component_of_WINDS"},"data":[0,0,0,0,0,0,0,0,0,0,0,0,0,0,0,0,0,0,0,0,0,0,0,0,0,0,0,0,0,0,0,0,0,0,0,0,0,0,0,0,0,0,0,0,0,0,0,0,0,0,0,0,0,0,0,0,0,0,5.203,5.2032,0,5.2236,5.2239,5.2241,5.2285,5.2283,5.2282,5.228,5.2487,5.2493,5.25,0,0,0,0,0,0,0,0,0,0,0,0,0,5.1665,5.1672,5.2029,5.2032,5.2035,5.2236,5.2239,5.2242,5.2285,5.2283,5.2281,5.228,5.2484,5.2493,5.2501,0,0,0,0,0,0,0,0,0,0,0,0,0,5.1843,5.1674,5.2029,5.2081,5.2087,5.2235,5.2239,5.2242,5.2285,5.2283,5.2281,5.2279,5.2482,5.2492,5.2502,5.2611,0,0,5.2534,5.2538,0,0,0,0,0,0,0,0,5.1833,5.1856,5.207,5.2077,5.2085,5.2233,5.2186,5.2366,5.2286,5.221,5.228,5.2278,5.2404,5.242,5.2464,5.2621,5.263,5.2535,5.2541,5.2545,5.2548,0,0,0,0,0,0,0,5.182,5.1847,5.2111,5.2073,5.2082,5.2091,5.2114,5.222,5.2317,5.2216,5.222,5.2244,5.2407,5.2454,5.2469,5.2633,5.2534,5.2544,5.255,5.2554,5.2886,5.2889,0,0,0,0,0,0,5.18,5.1837,5.2104,5.2117,5.1951,5.21,5.2125,5.2187,5.2316,5.2333,5.2246,5.2246,5.2437,5.2457,5.2476,5.261,5.2545,5.2555,5.2561,5.2884,5.2887,5.289,0,0,0,0,0,0,5.1792,5.1823,5.2096,5.1978,5.2014,5.2108,5.2178,5.2193,5.2239,5.2338,5.2355,5.2276,5.2436,5.2462,5.2577,5.2618,5.256,5.2569,5.2881,5.2885,5.2888,5.2879,0,0,0,0,0,0,5.1781,5.182,5.1864,5.1979,5.202,5.2195,5.2181,5.2198,5.2258,5.2259,5.2371,5.2387,5.2436,5.2561,5.2587,5.2631,5.2577,5.2877,5.2882,5.2887,5.2876,5.2883,5.2888,0,0,0,0,0,5.1768,5.1854,5.1867,5.1899,5.2078,5.2198,5.2221,5.2277,5.2261,5.2305,5.2368,5.2384,5.261,5.2573,5.2602,5.265,5.2875,5.2881,5.2887,5.2874,5.2881,5.2888,0,0,0,0,0,0,5.174,5.187,5.1885,5.2011,5.2093,5.2205,5.2262,5.2283,5.2371,5.2368,5.2432,5.2457,5.2567,5.2621,5.2577,5.276,5.2741,5.2753,5.2721,5.2729,5.2735,5.2718,5.2586,0,0,0,0,0,5.1749,5.1838,5.1945,5.2045,5.2086,5.2167,5.2221,5.2257,5.2344,5.2379,5.245,5.2532,5.2622,5.2679,5.2767,5.2885,5.2908,5.2932,5.2938,5.2942,5.2951,5.3013,5.3024,5.2909,5.2909,5.2909,0,0,5.1767,5.1849,5.1901,5.2042,5.211,5.2197,5.2196,5.2289,5.2354,5.2392,5.2505,5.256,5.2656,5.2772,5.2827,5.282,5.2988,5.2949,5.2952,5.2959,5.302,5.3031,5.3041,5.2913,5.2912,5.2912,0,0,5.1844,5.1917,5.2007,5.2075,5.2178,5.2231,5.2252,5.2361,5.2399,5.2514,5.2543,5.262,5.2774,5.2839,5.2893,5.2993,5.301,5.302,5.3048,5.3109,5.3118,5.3126,5.3158,5.3169,5.3029,5.3029,5.3029,0,5.1853,5.1989,5.2049,5.2141,5.2201,5.2241,5.233,5.2393,5.2518,5.2557,5.2548,5.2739,5.2807,5.2937,5.2961,5.3005,5.3029,5.3006,5.3112,5.3121,5.313,5.3161,5.3173,5.3029,5.3029,5.3029,5.3029,0,5.1993,5.2086,5.2146,5.2266,5.2333,5.2423,5.2495,5.2554,5.2584,5.2637,5.2751,5.2834,5.2937,5.2972,5.3002,5.3105,5.3097,5.31,5.3081,5.314,5.317,5.3183,5.303,5.303,5.3029,5.3029,0,0,5.2058,5.221,5.2231,5.2285,5.2401,5.2472,5.2563,5.2666,5.2713,5.2799,5.2874,5.3002,5.3004,5.3065,5.3102,5.3156,5.3225,5.3151,5.3154,5.3159,5.334,5.3335,5.3349,5.3238,5.3241,5.3243,5.3331,0,5.2146,5.2311,5.2367,5.2502,5.2586,5.2625,5.2703,5.2781,5.2833,5.291,5.2967,5.3055,5.3053,5.3089,5.3144,5.3205,5.3262,5.32,5.3305,5.3308,5.3277,5.3365,5.3361,5.344,5.3344,5.3346,5.3347,0,5.2272,5.2359,5.2502,5.2605,5.2642,5.2712,5.2808,5.2883,5.2971,5.3005,5.3072,5.3105,5.3198,5.3176,5.3303,5.326,5.3306,5.3342,5.3347,5.3356,5.3329,5.3373,5.3467,5.3478,5.3367,5.3366,5.3364,0,5.23,5.2453,5.2558,5.2603,5.2727,5.2774,5.2827,5.2913,5.297,5.3054,5.3091,5.3185,5.3235,5.3306,5.3363,5.3342,5.3483,5.3467,5.3511,5.3509,5.3536,5.3533,5.3635,5.3572,5.3572,5.3571,5.3571,0,5.2391,5.2476,5.2572,5.2636,5.2731,5.2794,5.2886,5.2941,5.3017,5.309,5.313,5.3198,5.327,5.3346,5.3392,5.3488,5.3511,5.3538,5.3549,5.3533,5.3529,5.3562,5.3557,5.3575,5.3574,5.3573,5.3573,0,5.2438,5.2506,5.2622,5.2729,5.2757,5.2822,5.2913,5.2975,5.3028,5.312,5.3146,5.3228,5.332,5.3384,5.3502,5.3532,5.3635,5.3646,5.3605,5.361,5.3649,5.3643,5.3773,5.3792,5.3718,5.3719,5.3719,0,5.249,5.2556,5.267,5.2723,5.2776,5.286,5.2918,5.2982,5.3041,5.3145,5.3193,5.3288,5.3367,5.3511,5.358,5.367,5.3682,5.3721,5.3695,5.3676,5.3678,5.3672,5.3677,5.3724,5.3724,5.3725,5.3725,0,5.2574,5.2604,5.2687,5.2782,5.285,5.2927,5.3005,5.3045,5.3122,5.3185,5.328,5.3341,5.3461,5.3553,5.3649,5.3701,5.3725,5.3733,5.3747,5.3731,5.3703,5.3715,5.3612,5.3729,5.3729,5.3729,5.3728,5.3728,5.2623,5.2683,5.2771,5.2861,5.2926,5.2997,5.306,5.3121,5.3201,5.3304,5.3337,5.3434,5.3518,5.3649,5.3703,5.3778,5.3776,5.3797,5.3802,5.3806,5.3803,5.3693,5.3796,5.3796,5.3796,5.3796,5.3796,0,5.2706,5.2765,5.2848,5.2954,5.3024,5.3043,5.3129,5.3185,5.3271,5.3348,5.3424,5.3531,5.362,5.3697,5.3788,5.3833,5.3846,5.3855,5.3851,5.3862,5.3802,5.3779,5.3843,5.3843,5.3843,5.3843,5.3843,5.3843,5.2758,5.2858,5.2897,5.3029,5.3087,5.3183,5.323,5.3295,5.3356,5.3474,5.3548,5.3598,5.3674,5.3771,5.3852,5.3872,5.3902,5.3908,5.393,5.3872,5.3866,5.3861,5.3839,5.3915,5.3915,5.3983,5.3984,5.3984]}]]